TimeCST,TemperatureF,Dew PointF,Humidity,Sea Level PressureIn,VisibilityMPH,Wind Direction,Wind SpeedMPH,Gust SpeedMPH,PrecipitationIn,Events,Conditions,WindDirDegrees,DateUTC
12:53 AM,43.0,34.0,71,30.08,8.0,South,10.4,-,0.05,Rain,Light Rain,170,2013-03-09 06:53:00
1:03 AM,42.8,35.6,76,30.06,3.0,SSE,13.8,-,0.05,Rain,Rain,160,2013-03-09 07:03:00
1:12 AM,39.2,35.6,87,30.07,2.5,South,11.5,-,0.11,Rain,Light Rain,170,2013-03-09 07:12:00
1:20 AM,41.0,35.6,81,30.07,6.0,South,10.4,-,0.11,Rain,Light Rain,180,2013-03-09 07:20:00
1:53 AM,39.9,36.0,86,30.09,5.0,South,6.9,-,0.16,Rain,Light Rain,190,2013-03-09 07:53:00
2:06 AM,39.2,37.4,93,30.06,2.5,South,8.1,-,0.05,Rain,Light Rain,170,2013-03-09 08:06:00
2:13 AM,39.2,37.4,93,30.06,3.0,SSE,8.1,-,0.06,Rain,Light Rain,160,2013-03-09 08:13:00
2:24 AM,39.2,37.4,93,30.05,2.5,SE,8.1,-,0.10,Rain,Rain,140,2013-03-09 08:24:00
2:43 AM,39.2,37.4,93,30.03,4.0,SE,11.5,-,0.16,Rain,Light Rain,130,2013-03-09 08:43:00
2:53 AM,39.9,37.0,89,30.04,5.0,SE,12.7,-,0.16,Rain,Light Rain,140,2013-03-09 08:53:00
3:53 AM,41.0,37.9,89,30.01,7.0,SSE,13.8,-,0.05,Rain,Light Rain,150,2013-03-09 09:53:00
4:53 AM,41.0,37.9,89,29.99,8.0,SSE,17.3,-,0.00,,Overcast,150,2013-03-09 10:53:00
5:53 AM,42.1,37.9,85,29.97,9.0,SSE,13.8,-,N/A,,Overcast,150,2013-03-09 11:53:00
6:53 AM,42.1,37.9,85,29.96,9.0,SSE,15.0,-,N/A,,Partly Cloudy,160,2013-03-09 12:53:00
7:53 AM,43.0,37.9,82,29.96,10.0,SSE,12.7,-,N/A,,Overcast,150,2013-03-09 13:53:00
8:53 AM,44.1,37.9,79,29.93,10.0,SSE,13.8,-,N/A,,Overcast,150,2013-03-09 14:53:00
9:53 AM,45.0,37.0,74,29.91,10.0,SSE,15.0,-,N/A,,Overcast,160,2013-03-09 15:53:00
10:53 AM,48.9,37.9,66,29.88,10.0,SSE,13.8,-,N/A,,Overcast,150,2013-03-09 16:53:00
11:53 AM,53.1,39.9,61,29.83,10.0,SE,10.4,-,N/A,,Overcast,140,2013-03-09 17:53:00
12:53 PM,60.1,39.9,47,29.78,10.0,SSE,16.1,-,N/A,,Mostly Cloudy,160,2013-03-09 18:53:00
1:53 PM,62.1,43.0,50,29.75,10.0,South,13.8,-,N/A,,Overcast,180,2013-03-09 19:53:00
2:53 PM,64.0,45.0,50,29.73,10.0,South,15.0,21.9,N/A,,Overcast,180,2013-03-09 20:53:00
3:53 PM,63.0,46.0,54,29.73,10.0,South,12.7,-,N/A,,Overcast,180,2013-03-09 21:53:00
4:53 PM,62.1,46.9,58,29.71,10.0,South,11.5,-,N/A,,Overcast,180,2013-03-09 22:53:00
5:53 PM,61.0,46.9,60,29.70,10.0,South,11.5,-,N/A,,Overcast,170,2013-03-09 23:53:00
6:53 PM,61.0,48.9,64,29.70,10.0,South,13.8,-,N/A,,Overcast,180,2013-03-10 00:53:00
7:53 PM,61.0,50.0,67,29.70,10.0,South,12.7,-,N/A,,Overcast,180,2013-03-10 01:53:00
8:53 PM,59.0,53.1,81,29.70,10.0,South,12.7,-,0.01,,Overcast,170,2013-03-10 02:53:00
9:53 PM,57.9,53.1,84,29.70,10.0,SSE,19.6,27.6,0.01,,Overcast,160,2013-03-10 03:53:00
10:53 PM,57.0,53.1,87,29.70,6.0,South,15.0,24.2,0.01,Rain,Light Rain,180,2013-03-10 04:53:00
11:53 PM,55.9,53.1,90,29.70,5.0,South,15.0,-,0.12,Rain,Light Rain,190,2013-03-10 05:53:00